Location: North Fort Myers
(26.6673°N, 81.8801°W)
Time: 03:39:43
(UTC+00:00)

X-37B - Visible Passes

Search period start: 16 August 2022 00:00
Search period end: 26 August 2022 00:00
Orbit: 328 x 343 km, 45.0° (Epoch: 12 August)

Date Brightness Start Highest point End Pass type
(mag) Time Alt. Az. Time Alt. Az. Time Alt. Az.
16 Aug 3.5 09:20:37 10° N 09:22:13 14° NNE 09:23:50 10° ENE visible
17 Aug 1.6 09:40:41 14° NNW 09:42:50 40° NE 09:45:35 10° ESE visible
18 Aug 0.7 10:02:00 25° W 10:03:15 41° SW 10:05:59 10° SSE visible
19 Aug 1.3 00:44:00 10° SSW 00:46:26 27° SE 00:47:59 16° E visible
19 Aug 2.6 10:23:38 11° SW 10:23:38 11° SW 10:24:10 10° SSW visible
20 Aug 0.7 01:04:01 10° WSW 01:06:47 61° NW 01:09:03 14° NE visible
21 Aug 3.2 01:25:21 10° WNW 01:27:20 17° NNW 01:29:21 10° NNE visible
23 Aug 3.2 00:30:47 10° WNW 00:32:47 18° NNW 00:34:47 10° NNE visible
